OBJECT K, 42834

Orbit data source: Space-Track

You're viewing an uncataloged RSO

Recently launched and/or uncataloged RSOs may have evolving metadata. Metadata may include the following, but is not limited to: Owner, Manufacturer, Bus, Motor, and Mission.

OBJECT K, 42834 is a satellite in SSO that was launched on Fri, 14 Jul 2017 UTC via a SOYUZ-2-1A launch vehicle from the Tyuratam Missile And Space Complex (TTMTR). Unknown objects in Earth's orbit typically refer to objects detected orbiting the Earth but have not yet been identified or cataloged. These objects could be anything from previously untracked satellites, spent rocket stages, debris from satellite collisions, or even natural meteoroids temporarily captured by Earth's gravity.

Loading next visibility...
Identifier
42834, 2017-042K
Orbit
SSO
Country
Flag of TBDTBD
Related business
None
Manufacturer
Unknown
Mission
Non-operational Civil Technology
Bus & Motor
Unknown
Mass
Unknown
Launch date (UTC)
2017-07-14 (9 years ago)
Launch vehicle
SOYUZ-2-1A
Launch site
Tyuratam Missile And Space Complex (TTMTR)
Object type
Unknown
Shape & HBR
Box + 2 Pan, 0.2 m
Radar Cross Section
0.092 m², Medium (>0.1 m² and < 1m²)

Expand to show TLE details & history
Last TLE update: 1 day ago

TLE from 1 day ago
0 OBJECT K
1 42834U 17042K   26236.40780852  .00004262  00000-0  26868-3 0  9995
2 42834  97.4288  35.8223 0008824 176.1010 184.0290 15.09622414497279
Epoch: 2026-08-24T09:47Z
TLE epoch observation values (Epoch: 2026-08-24T09:47:14.656Z)
Latitude
0.00002°
Longitude
-83.67872°
Altitude
546.517 km
Speed
7.585 km/s
True Right ascension
02h 23m 17s
True Declination
0° 00' 00"
Sunlit
Object was in full shadow at epoch
Visualization orbit readout
Latitude
Unknown
Longitude
Unknown
Altitude
Unknown
Speed
Unknown
Apparent Right ascension
Unknown
Apparent Declination
Unknown
Sunlit
N/A
Visualization observer readout
Local Sidereal Time
01:51:09
Azimuth
Unknown
Elevation
Unknown
Doppler factor
Unknown
Orbital elements
Apogee altitude
540.433 km
Perigee altitude
528.234 km
Semi-major axis
6,912.471 km
Eccentricity
0.00088
Inclination
97.4288°
RAAN
35.8223°
Arg. of periapsis
176.101°
True anomaly
184.0219°
Mean anomaly
184.029°
Eccentric anomaly
184.02545°
Mean motion
3.77653 °/min
Orbital period
95.33 mins
BSTAR
0.00026868
Loading maneuver chart data...
Computing Atmospheric mass density...
Loading historical data...
Loading historical data...
Loading historical data...
Loading historical data...
Loading historical data...
Loading historical data...
Loading historical data...

Documentation

Showing up to 5 results
|